Terug naar catalogus

AEROCUBE 16A

ActiefWetenschapVLEO
NORAD 59290·PAYLOAD·🇺🇸 United States

Gelanceerd Mar 21, 2024 vanaf Wallops Flight Facility

Loading…

Volgende Passages (komende 24 uur)

TLE

VersSource: Space-Track

Epoch: Sep 14, 2026, 22:23 UTC

1 59290U 24053C   26257.93321540  .00018137  00000-0  36848-3 0  9990
2 59290  49.9871 227.4730 0003061   7.9234 352.1778 15.46329679134985

Volg AEROCUBE 16A in realtime met AllMySat

Download on the App Store